Wind_Speed
25 26 27 28 28 29 29 29 29 29 29 29 29 27 26 25 25 26 27 28 29 29 28 28 26 26 25 24 23 22 20 19 19 19 19 18 17 16 15 13 12 12 11
27 29 29 30 30 30 31 31 31 31 30 30 29 29 28 27 28 28 27 27 29 30 29 29 29 29 28 27 26 25 23 22 21 21 21 20 20 19 18 17 15 14 13
31 32 32 32 32 32 32 32 31 31 32 31 31 30 29 29 29 29 29 28 29 30 30 30 30 29 30 29 29 28 26 24 24 23 23 22 21 21 20 19 18 17 16
31 32 33 32 33 33 34 34 33 33 33 33 32 31 31 30 29 29 29 29 29 28 29 31 31 31 30 30 30 30 29 27 26 25 25 24 23 22 21 21 20 19 18
32 32 33 33 34 35 35 35 35 34 34 33 33 32 31 31 31 30 30 30 30 29 29 31 32 32 33 32 32 32 32 30 28 27 26 25 25 24 22 21 22 22 21
33 34 34 35 35 36 36 35 35 35 35 34 33 33 32 31 31 31 30 30 30 30 29 31 32 32 32 33 33 33 33 32 30 29 28 27 26 25 24 23 22 23 22
34 34 35 36 36 36 36 37 36 36 36 36 35 34 33 33 32 32 32 32 32 32 31 31 33 32 32 32 34 35 36 35 32 30 29 28 27 26 25 25 23 23 23
34 34 35 35 35 36 36 37 37 37 36 37 36 35 35 35 35 33 33 33 33 33 32 31 32 33 33 34 34 35 36 36 34 33 31 30 28 27 26 25 25 24 24
34 34 34 35 35 35 36 36 36 36 36 36 36 36 36 36 37 35 34 34 34 34 34 33 32 34 34 35 35 37 37 37 36 34 33 31 30 28 27 26 25 25 25
34 34 34 34 34 35 35 36 36 36 35 36 36 36 36 36 36 36 35 35 35 35 34 34 34 35 35 37 36 38 38 38 36 35 35 33 31 29 28 27 25 25 24
34 34 34 34 34 34 35 35 36 36 36 36 36 36 35 35 36 36 36 37 37 36 36 35 34 36 35 37 38 38 40 39 37 36 35 34 32 30 29 27 26 25 24
33 34 34 34 35 35 35 35 35 36 36 36 36 36 36 35 35 35 35 37 38 37 37 36 35 35 36 37 38 39 40 40 39 38 37 35 34 31 30 28 27 26 25
34 35 35 35 35 35 35 35 35 36 36 36 36 35 35 35 35 35 35 36 38 38 37 36 36 36 36 37 39 39 41 41 39 39 38 37 35 33 30 29 27 26 26
34 35 36 36 36 36 36 36 36 36 36 36 36 36 36 36 36 35 35 36 37 38 38 37 37 38 38 39 40 40 40 40 40 40 38 37 36 34 32 30 28 27 26
34 35 36 36 36 36 36 36 36 37 37 37 37 37 37 37 37 36 36 36 36 37 38 38 39 39 39 39 39 40 41 41 42 41 39 38 37 35 33 31 28 27 26
35 36 37 37 37 36 36 36 36 37 37 37 38 38 38 38 38 38 37 37 37 37 37 38 39 40 40 40 40 41 42 42 43 42 40 39 37 36 34 31 29 27 26
36 37 37 37 37 37 37 37 37 37 37 37 38 39 40 40 40 40 39 39 38 39 38 39 40 40 41 41 41 43 43 44 43 42 42 40 39 37 35 32 30 28 26
37 37 37 37 37 37 37 37 37 37 37 38 39 40 41 42 42 42 42 41 41 41 41 40 40 42 42 43 43 44 44 44 44 44 43 42 40 38 36 33 31 29 27
39 39 38 38 37 37 37 38 37 37 38 39 40 41 41 43 43 44 44 44 44 44 43 42 42 42 43 44 45 45 46 46 46 46 45 43 42 40 37 35 32 30 28
40 40 40 39 38 38 38 38 38 39 39 39 40 41 42 43 44 44 45 46 47 46 46 45 45 45 44 45 44 47 47 47 47 47 46 44 43 41 39 37 34 32 29
41 41 41 40 39 39 39 39 38 38 39 39 40 42 43 44 45 46 47 47 49 49 48 48 47 47 46 47 46 47 47 48 49 48 47 46 45 43 41 38 36 33 30
42 42 41 40 40 40 40 39 39 39 39 39 40 42 44 45 46 48 48 49 50 51 51 51 50 49 49 48 47 47 47 48 49 50 49 48 47 45 43 40 38 35 32
43 42 41 41 41 41 40 39 39 39 39 39 40 41 42 43 46 48 49 50 51 52 53 54 53 51 52 50 49 48 48 48 48 49 50 49 48 47 45 42 40 37 34
44 42 42 42 41 40 39 38 39 39 38 38 38 39 40 41 43 46 47 49 51 52 54 55 55 54 53 52 50 49 49 50 50 50 51 51 50 48 47 44 42 39 36
44 43 42 42 40 39 39 39 38 37 37 37 37 37 38 39 41 43 46 47 49 51 53 55 56 56 56 54 53 52 51 51 50 51 51 51 51 49 48 46 44 41 38
44 43 43 41 39 38 39 39 38 36 35 35 35 36 36 37 39 41 42 45 47 50 53 55 56 57 58 57 55 53 52 51 52 52 52 51 52 51 49 48 46 43 40
Wind_Direction
276 277 280 285 283 283 283 283 282 282 284 283 285 283 278 275 271 266 259 253 248 245 244 243 241 238 235 233 230 229 228 229 229 228 227 226 225 224 222 221 221 221 220
282 281 283 285 285 282 282 281 279 280 280 281 282 280 277 274 271 267 262 256 250 247 245 242 241 241 237 234 232 229 229 229 229 229 230 228 227 228 227 226 225 226 225
281 281 282 284 282 282 281 279 278 278 277 277 277 277 274 272 271 265 261 257 253 248 246 243 241 240 237 234 232 230 229 228 228 229 230 229 229 229 229 228 228 228 227
284 284 284 284 283 281 280 279 278 277 275 274 274 274 272 269 268 263 259 256 253 250 245 243 243 240 237 236 233 230 228 228 229 229 229 230 230 231 232 231 230 230 230
285 285 285 284 282 282 280 279 278 275 274 273 272 270 270 269 265 262 258 255 253 252 247 244 243 240 239 238 234 230 227 227 227 228 228 229 230 232 233 232 232 232 233
290 288 287 285 283 282 281 279 277 275 273 271 270 268 267 266 263 260 257 253 252 250 248 244 243 241 239 237 233 227 225 225 226 227 228 228 229 230 231 232 232 231 231
291 290 288 286 285 283 281 280 278 275 273 271 268 266 264 262 261 258 256 253 251 249 248 245 242 240 238 235 231 227 226 225 226 226 227 228 227 227 229 231 231 231 231
293 290 288 286 284 283 281 279 278 275 273 271 268 264 261 260 258 257 255 252 250 249 249 246 241 238 236 232 230 226 224 226 226 225 226 227 227 227 229 229 230 231 231
295 293 291 288 285 284 282 280 278 276 273 271 268 264 260 257 257 255 254 251 248 247 247 245 241 238 236 231 227 224 225 226 225 224 225 225 226 227 228 229 229 230 230
298 296 293 290 288 285 282 280 278 276 273 271 268 265 261 258 255 253 252 249 246 245 244 243 241 238 234 229 226 225 224 223 223 223 224 224 225 226 228 229 229 229 230
298 296 294 292 290 287 284 281 278 276 273 270 268 265 262 259 255 252 250 249 246 244 243 242 240 236 233 228 226 224 223 223 222 223 223 224 224 225 226 227 228 229 229
299 297 295 293 291 288 285 281 278 274 272 270 267 264 262 259 256 252 248 247 245 243 242 240 238 235 233 227 223 222 222 221 222 221 222 224 223 224 225 226 228 228 229
302 300 298 295 292 289 286 282 278 274 271 269 266 263 260 257 255 252 248 245 243 241 239 237 234 233 231 226 223 222 222 222 222 221 222 222 223 223 223 226 227 228 228
306 303 300 297 293 290 286 282 278 274 270 266 263 260 258 255 253 252 249 245 242 240 237 236 233 231 229 226 225 223 223 222 221 221 221 220 220 221 222 224 226 226 227
309 306 303 299 295 291 287 284 279 274 269 265 262 259 256 253 251 250 248 245 242 239 237 236 234 231 228 227 226 224 223 221 221 219 220 219 220 220 222 223 224 224 225
312 308 304 300 296 293 289 285 280 275 270 265 261 258 255 252 250 248 247 245 242 238 235 233 232 230 228 226 224 223 221 220 220 220 218 218 219 219 219 220 221 221 223
314 310 306 302 299 295 291 287 281 276 271 266 262 258 255 253 250 248 246 245 242 237 233 232 230 229 228 225 223 221 220 217 217 217 217 217 217 217 217 217 218 219 220
316 312 309 305 301 298 294 289 284 278 272 267 263 259 256 253 250 248 245 243 241 237 233 231 229 228 228 226 223 220 218 216 216 215 216 216 216 216 215 216 216 217 218
318 315 311 307 303 300 295 290 286 280 275 270 265 261 257 253 249 247 244 242 240 237 234 231 228 227 227 226 224 221 218 217 215 215 214 214 215 215 215 215 215 216 217
320 317 313 309 305 301 296 292 288 283 278 273 268 263 258 254 250 247 244 241 239 237 234 231 230 229 227 225 225 222 219 218 215 213 214 214 214 215 215 215 214 215 216
321 318 314 310 306 303 299 294 290 285 280 275 270 265 259 255 250 247 244 241 238 235 233 230 230 230 228 225 225 222 220 218 215 213 213 213 214 215 215 215 215 215 216
321 318 315 311 307 304 301 297 292 288 283 278 272 267 261 256 251 246 243 240 237 234 232 229 228 228 226 223 223 222 220 218 216 215 214 213 214 214 214 215 215 215 216
321 319 316 313 310 306 302 299 295 290 285 280 274 268 263 258 251 246 242 239 236 233 230 227 226 225 224 221 221 221 220 218 217 216 215 214 214 214 214 215 215 215 215
322 320 318 315 312 309 305 302 298 293 288 282 275 269 264 259 252 246 241 237 234 232 229 227 225 223 222 221 220 219 218 217 216 216 215 214 214 214 214 215 215 215 215
323 321 319 317 315 312 309 306 301 296 290 283 276 271 266 259 252 246 241 236 233 231 228 226 224 223 220 218 217 217 217 216 216 216 216 215 213 214 214 214 215 215 215
325 323 322 320 317 315 312 309 304 299 293 286 279 272 265 259 251 245 240 235 232 229 227 225 223 221 219 218 216 215 215 217 216 215 215 215 214 214 214 214 215 216 216
Height
5859 5859 5858 5858 5856 5856 5856 5856 5856 5855 5855 5854 5854 5854 5854 5854 5855 5856 5858 5860 5862 5864 5867 5869 5872 5874 5877 5880 5882 5885 5887 5890 5893 5895 5897 5899 5901 5903 5905 5907 5908 5910 5912
5853 5853 5852 5851 5850 5850 5850 5849 5849 5849 5849 5848 5848 5848 5848 5848 5848 5849 5851 5853 5855 5857 5859 5862 5865 5868 5871 5874 5877 5880 5882 5885 5888 5891 5894 5896 5898 5900 5902 5904 5906 5908 5910
5847 5847 5846 5845 5844 5843 5843 5842 5842 5842 5842 5841 5841 5841 5841 5841 5841 5842 5844 5845 5847 5850 5852 5855 5858 5861 5864 5867 5871 5874 5877 5880 5883 5886 5889 5892 5894 5897 5899 5901 5903 5905 5907
5840 5839 5838 5837 5837 5836 5835 5835 5834 5834 5834 5833 5834 5833 5834 5834 5835 5835 5836 5838 5840 5842 5845 5848 5851 5854 5857 5860 5864 5867 5871 5875 5878 5881 5884 5887 5890 5893 5895 5897 5900 5902 5904
5833 5832 5831 5829 5828 5827 5827 5826 5826 5825 5825 5825 5826 5826 5826 5827 5827 5828 5829 5830 5833 5835 5838 5840 5843 5846 5850 5853 5856 5860 5865 5868 5872 5876 5879 5882 5885 5888 5891 5893 5896 5898 5901
5825 5823 5821 5820 5819 5818 5817 5817 5816 5816 5816 5816 5817 5818 5818 5819 5820 5821 5822 5823 5825 5828 5830 5833 5836 5839 5842 5845 5849 5853 5858 5862 5866 5870 5873 5877 5880 5883 5886 5889 5892 5894 5897
5816 5814 5813 5811 5810 5808 5807 5807 5806 5806 5806 5806 5808 5809 5810 5811 5812 5813 5814 5816 5818 5820 5822 5825 5828 5831 5835 5838 5842 5846 5851 5855 5859 5864 5868 5871 5875 5878 5881 5884 5887 5890 5893
5807 5805 5804 5802 5800 5799 5798 5797 5796 5796 5796 5796 5797 5799 5801 5802 5803 5804 5806 5808 5810 5812 5814 5817 5820 5824 5827 5831 5835 5839 5844 5848 5853 5857 5862 5866 5869 5873 5876 5879 5882 5885 5888
5799 5796 5795 5793 5791 5789 5788 5787 5786 5786 5786 5786 5786 5788 5790 5792 5793 5795 5797 5799 5801 5804 5806 5809 5812 5816 5819 5823 5827 5832 5837 5842 5846 5851 5855 5860 5864 5867 5871 5874 5877 5880 5884
5790 5787 5785 5783 5781 5780 5778 5777 5776 5775 5776 5776 5776 5777 5779 5781 5783 5786 5788 5789 5792 5795 5798 5801 5804 5807 5811 5815 5820 5825 5829 5834 5839 5844 5849 5853 5858 5862 5865 5869 5872 5876 5879
5781 5779 5776 5774 5772 5770 5769 5767 5766 5765 5765 5765 5766 5766 5768 5770 5772 5775 5778 5780 5782 5786 5788 5792 5795 5799 5803 5807 5812 5817 5822 5827 5832 5838 5843 5847 5852 5856 5860 5864 5867 5871 5874
5773 5770 5767 5765 5762 5760 5758 5757 5756 5755 5755 5755 5755 5756 5758 5759 5761 5764 5768 5770 5773 5776 5779 5783 5786 5790 5794 5798 5804 5809 5814 5820 5825 5831 5836 5841 5846 5850 5854 5859 5862 5866 5869
5764 5761 5758 5755 5752 5750 5748 5747 5746 5745 5744 5745 5745 5746 5747 5749 5751 5754 5757 5760 5763 5767 5770 5774 5778 5782 5786 5790 5795 5801 5807 5812 5818 5824 5829 5835 5840 5844 5849 5853 5857 5861 5864
5755 5751 5748 5745 5742 5740 5738 5736 5735 5734 5734 5734 5735 5736 5737 5739 5741 5744 5747 5750 5753 5757 5761 5765 5768 5773 5777 5782 5787 5792 5798 5804 5810 5816 5822 5828 5833 5839 5843 5847 5852 5855 5859
5746 5742 5738 5735 5731 5729 5727 5725 5724 5723 5723 5723 5724 5725 5727 5729 5731 5733 5736 5740 5743 5747 5751 5755 5759 5764 5768 5773 5778 5784 5790 5796 5802 5809 5815 5821 5827 5832 5837 5842 5846 5850 5854
5737 5733 5728 5724 5721 5718 5716 5714 5712 5711 5711 5712 5712 5714 5715 5717 5720 5723 5726 5729 5733 5737 5741 5746 5750 5754 5759 5765 5770 5775 5781 5788 5794 5801 5807 5814 5820 5826 5831 5836 5841 5845 5849
5728 5723 5718 5714 5710 5707 5704 5702 5701 5699 5699 5699 5700 5702 5703 5705 5708 5711 5715 5718 5722 5726 5731 5736 5740 5745 5750 5756 5761 5767 5772 5779 5786 5793 5800 5807 5813 5819 5825 5830 5835 5839 5843
5719 5713 5708 5704 5700 5696 5693 5690 5688 5687 5687 5687 5688 5689 5691 5693 5696 5699 5703 5707 5711 5715 5721 5726 5730 5735 5741 5746 5752 5758 5764 5770 5778 5785 5792 5800 5806 5812 5818 5824 5829 5834 5838
5709 5704 5698 5693 5689 5685 5681 5678 5676 5674 5673 5674 5674 5675 5677 5679 5682 5686 5690 5694 5699 5704 5709 5715 5720 5725 5731 5736 5742 5748 5755 5762 5769 5776 5784 5792 5799 5806 5812 5818 5823 5828 5832
5700 5694 5688 5682 5678 5673 5669 5666 5663 5661 5660 5659 5659 5661 5662 5665 5668 5671 5676 5681 5686 5691 5697 5703 5708 5714 5720 5726 5732 5739 5746 5753 5760 5768 5776 5784 5791 5798 5805 5811 5817 5822 5827
5690 5684 5677 5672 5666 5662 5657 5653 5650 5648 5646 5645 5644 5645 5647 5649 5652 5656 5661 5666 5672 5678 5684 5691 5697 5703 5710 5716 5723 5729 5736 5743 5751 5759 5767 5776 5784 5791 5798 5805 5811 5816 5821
5680 5673 5667 5661 5655 5650 5645 5640 5637 5634 5631 5630 5629 5629 5630 5633 5636 5640 5645 5651 5657 5663 5671 5678 5685 5692 5699 5706 5713 5720 5727 5735 5743 5752 5759 5767 5775 5783 5791 5798 5804 5810 5815
5671 5663 5656 5650 5644 5638 5632 5627 5623 5620 5617 5614 5613 5613 5613 5616 5619 5623 5628 5634 5641 5648 5656 5664 5672 5679 5687 5695 5703 5710 5717 5725 5734 5742 5750 5758 5766 5775 5783 5790 5797 5803 5809
5661 5653 5646 5639 5633 5626 5620 5615 5610 5606 5602 5599 5598 5597 5598 5600 5602 5607 5612 5618 5625 5633 5641 5650 5659 5666 5674 5682 5691 5699 5707 5715 5723 5731 5740 5749 5758 5766 5775 5783 5790 5797 5803
5651 5643 5636 5629 5622 5615 5608 5603 5597 5592 5588 5585 5583 5583 5583 5584 5587 5591 5597 5603 5610 5617 5625 5634 5643 5652 5661 5670 5679 5687 5696 5705 5713 5722 5731 5740 5749 5758 5766 5775 5782 5789 5796
5642 5634 5626 5618 5611 5605 5598 5591 5584 5579 5575 5572 5569 5568 5568 5570 5572 5576 5581 5588 5596 5603 5610 5619 5629 5638 5648 5657 5667 5677 5686 5695 5704 5712 5722 5731 5740 5749 5758 5766 5774 5782 5789